Location: Madrid
(40.4000°N, 3.6830°W)
Time: 02:58:02
(UTC+02:00)

ISS - Pass Details

Date: 06 July 2020
Orbit: 417 x 421 km, 51.6° (Epoch: 09 July)

Event Time Altitude Azimuth Distance (km) Brightness Sun altitude
Exits shadow 04:56:46 - 294° (WNW) 1,706 -0.8 -17.1°
Reaches altitude 10° 04:57:31 10° 303° (WNW) 1,495 -1.0 -17.0°
Maximum altitude 04:59:43 16° 344° (NNW) 1,170 -1.1 -16.8°
Drops below altitude 10° 05:01:57 10° 26° (NNE) 1,498 0.3 -16.5°
Sets 05:04:37 0° 48° (NE) 2,363 1.8 -16.2°
